Location: Shades State Park
(39.9310°N, 87.0690°W)
Time: 07:16:00
(UTC-05:00)

Daily predictions for brighter satellites

Satellite Brightness Start Highest point End
(mag) Time Altitude Azimuth Time Altitude Azimuth Time Altitude Azimuth
CSL-04 Debris 4.3 17:47:09 10° SSE 17:52:25 54° ENE 17:57:42 10° N
Ariane Rocket 3.1 17:49:30 10° SSE 17:54:27 55° ENE 17:59:25 10° N
COSMOS 2455 2.9 17:51:37 10° SSW 17:57:36 77° ESE 18:03:38 10° NNE
Aureole 3 4.1 17:53:29 10° N 17:58:10 84° E 18:04:10 10° S
USA 234 4.1 17:53:43 10° ENE 17:59:33 34° SE 18:05:21 10° S
Cosmos 1833 Rocket 3.9 17:57:29 10° N 18:01:32 20° NE 18:05:34 10° E
Timation 1 Rocket 4.4 17:55:48 10° S 18:01:42 64° ESE 18:07:39 10° NNE
Cosmos 1844 3.9 17:56:13 10° SSW 18:01:59 80° WNW 18:07:49 10° NNE
Meteor 1-26 Rocket 4.3 17:57:06 10° S 18:02:34 56° E 18:07:58 10° NNE
Cosmos 1725 Rocket 4.1 17:56:37 10° S 18:02:55 87° E 18:09:12 10° N
Cosmos 841 Rocket 4.1 17:58:12 10° N 18:03:00 34° ENE 18:07:45 10° SE
Cosmos 1633 4.2 18:02:14 10° NE 18:04:32 16° ENE 18:06:51 10° ESE
IDEFIX/ARIANE 42P 4.3 18:01:00 10° SSW 18:05:50 38° W 18:10:42 10° NNW
Lacrosse 5 3.9 18:02:54 10° WNW 18:06:26 19° NNW 18:09:59 10° NNE
Cosmos 2278 Rocket 2.4 18:01:48 10° S 18:07:18 54° ESE 18:12:49 10° NNE
CZ-4 R/B 1.6 18:03:53 10° SE 18:07:34 43° ENE 18:11:13 10° N
Cosmos 1486 Rocket 4.4 18:03:58 10° S 18:08:52 44° ESE 18:13:50 10° NNE
Cosmos 1933 4.1 18:07:31 10° SSW 18:11:29 56° W 18:15:27 10° N
CORIOLIS 4.1 18:11:52 10° SSE 18:17:16 70° ENE 18:22:42 10° N
COSMO-SKYMED 1 3.3 18:15:58 10° NNE 18:19:51 31° E 18:23:43 10° SSE
YAOGAN 1 2.8 18:16:01 10° SE 18:20:08 45° ENE 18:24:15 10° N
Tsikada Rocket 4.1 18:14:43 10° N 18:20:54 81° W 18:27:04 10° S
Cosmos 304 Rocket 3.7 18:17:55 10° NNW 18:22:43 65° ENE 18:27:27 10° SSE
USA 116 3.9 18:19:48 10° NNE 18:24:17 65° E 18:28:12 10° S
Meteor 1-28 Rocket 3.1 18:20:34 10° NNE 18:24:17 77° ESE 18:27:59 10° S
SPOT 3 Rocket 4.2 18:20:16 10° SE 18:24:51 32° ENE 18:29:27 10° N
Cosmos 1484 Rocket 3.0 18:21:33 10° S 18:25:22 76° WSW 18:29:18 10° NNW
CZ-2C R/B 3.6 18:21:26 10° NNE 18:25:55 71° ESE 18:30:26 10° S
BREEZE-M DEB (TANK) 2.0 18:24:20 10° SW 18:26:22 49° SE 18:27:47 20° ENE
Cosmos 1437 3.7 18:24:50 10° SSW 18:27:54 47° WNW 18:31:00 10° N
Cosmos 1606 3.2 18:24:37 10° SSE 18:28:05 35° E 18:31:33 10° NNE
Cosmos 2221 Rocket 4.3 18:28:19 10° SSE 18:32:11 31° E 18:36:05 10° NNE
Cosmos 2346 Rocket 4.5 18:26:06 10° N 18:32:17 89° E 18:38:29 10° S
EO 1 Del DPAF 3.6 18:30:57 10° NNE 18:34:36 41° E 18:38:13 10° S
Landsat 4 3.6 18:31:23 10° NNE 18:35:11 75° ESE 18:38:58 10° S
CENTAUR R/B 3.7 18:34:27 10° WSW 18:40:07 38° NW 18:46:34 10° NNE
Cosmos 1703 Rocket 3.5 18:37:14 10° S 18:41:39 66° E 18:46:06 10° NNE
ERBS 2.9 18:39:08 10° NW 18:42:29 59° SW 18:45:51 10° SSE
Cosmos 44 4.3 18:40:35 10° N 18:44:25 24° NE 18:45:15 23° ENE
Cosmos 1782 2.8 18:40:34 10° S 18:44:30 58° E 18:48:28 10° NNE
Meteor 1-25 Rocket 4.3 18:39:48 10° N 18:45:40 86° ENE 18:51:29 10° S
Meteor 1-20 Rocket 4.1 18:42:12 10° N 18:47:47 81° E 18:53:16 10° SSE
Cosmos 2082 Rocket 2.5 18:42:28 10° N 18:47:53 43° ENE 18:53:13 10° SE
SKYMED 3 4.5 18:45:35 10° NNE 18:49:55 70° E 18:54:15 10° S
Okean 2 Rocket 3.5 18:49:17 10° N 18:53:31 38° ENE 18:57:44 10° SSE
ALOS 2.4 18:50:12 10° SSE 18:54:43 50° ENE 18:59:14 10° N
METEOR-M 4.1 18:51:51 10° SSE 18:57:11 89° ENE 19:02:33 10° NNW
Cosmos 1464 Rocket 3.9 18:51:20 10° S 18:57:20 62° E 19:03:24 10° NNE
Thor Agena Rocket 4.4 18:59:07 28° E 18:59:07 28° E 19:03:21 10° SSE
BREEZE-M DEB (TANK) 4.0 18:51:36 10° WNW 18:59:01 44° SW 19:02:12 10° SSE
Cosmos 405 Rocket 3.1 18:55:35 10° SSE 18:58:57 37° ESE 18:58:57 37° ESE
ERS-2 2.6 19:00:57 10° S 19:04:36 63° WSW 19:08:16 10° NNW
Meteor 1-27 Rocket 4.1 19:01:24 10° SSE 19:06:57 45° E 19:11:10 17° NNE
Cosmos 1908 Rocket 4.4 19:03:41 10° NNW 19:07:53 50° W 19:12:04 10° SSW
SKYMED 2 3.7 19:03:38 10° N 19:07:58 73° WNW 19:12:18 10° SSW
Meteor 1-10 Rocket 4.2 19:09:17 10° S 19:14:55 89° E 19:20:44 10° N
BREEZE-M R/B 2.8 19:18:57 10° WNW 19:21:56 79° SW 19:22:51 52° SE
SL-27 R/B 3.6 19:19:34 10° NNW 19:22:44 41° WSW 19:25:54 10° S
Cosmos 1503 Rocket 4.3 19:24:01 10° SSW 19:29:15 66° WNW 19:32:49 21° N
CZ-4C R/B 3.1 19:27:43 10° NNW 19:34:36 47° NE 19:35:39 45° ENE
FENGYUN 3A 3.9 19:29:33 10° S 19:34:57 70° WSW 19:40:22 10° NNW
Meteor 2-20 Rocket 4.3 19:29:18 10° N 19:35:21 61° E 19:41:21 10° SSE
Cosmos 968 Rocket 3.8 19:33:06 10° S 19:37:11 50° SSE 19:37:11 50° SSE
Okean 1-7 4.3 19:34:43 10° SSW 19:38:49 40° WNW 19:42:59 10° N
Cosmos 540 Rocket 3.9 19:34:32 10° NNW 19:39:39 62° WSW 19:44:43 10° S
USA 234 3.4 19:39:51 35° NNE 19:42:47 67° NW 19:49:15 10° WSW
Cosmos 2297 4.2 19:39:52 10° SW 19:45:28 57° WNW 19:48:34 27° N
Cosmos 1833 Rocket 3.0 19:40:22 10° NNW 19:45:56 63° WSW 19:51:28 10° S
Meteor 1-11 Rocket 3.7 19:40:08 10° N 19:46:02 89° E 19:51:45 10° S
Lacrosse 5 4.3 19:49:57 10° NNW 19:51:00 11° N 19:51:00 11° N
Cosmos 2278 Rocket 4.3 19:47:18 10° WSW 19:51:44 23° NW 19:56:09 10° N
Cosmos 44 Rocket 3.9 19:48:27 10° NNW 19:51:59 48° NNW 19:51:59 48° NNW
Nadezhda 4 Rocket 4.2 20:06:46 10° NNW 20:12:49 64° W 20:18:49 10° S
Timation 2 Rocket 4.2 20:08:38 10° NNW 20:14:18 64° NNW 20:14:18 64° NNW
Cosmos 2082 Rocket 4.1 20:27:04 10° NW 20:31:41 26° WSW 20:36:15 10° SSW
CZ-4C R/B 4.2 21:16:21 10° NW 21:20:54 35° WNW 21:20:54 35° WNW
